Temperature
23 22 22 22 22 21 21 21 20 20 20 19 19 19 19 19 19 18 18 18 18 18 18 18 18 18 18 18 18 17 17 17 17 17 17 17 17 17 18 17 17 17 17
22 22 22 22 22 21 21 21 20 20 20 20 19 19 19 19 19 18 18 18 18 18 18 18 18 18 18 17 17 17 17 17 17 17 17 17 17 18 18 18 18 18 17
23 23 22 22 22 22 21 21 21 20 20 20 19 19 19 18 18 18 18 18 18 18 18 18 18 18 18 18 18 17 17 17 17 17 17 17 17 18 18 18 18 18 18
23 23 23 23 22 22 22 21 21 20 20 19 19 19 19 18 19 18 18 18 18 18 18 18 18 18 18 18 18 17 17 17 17 17 17 17 17 17 18 18 18 18 18
23 23 23 23 22 22 22 21 21 20 20 19 19 19 18 18 18 18 18 18 18 18 18 18 18 18 18 18 18 17 17 17 17 17 17 17 17 17 17 17 18 18 18
23 23 23 23 22 22 22 21 21 20 20 19 19 19 19 18 18 18 18 18 18 18 18 18 17 18 18 18 18 17 17 17 17 17 17 17 17 17 17 17 17 18 18
23 23 23 22 22 22 21 21 21 20 20 19 19 19 18 18 18 18 18 18 18 18 18 18 18 18 17 17 17 17 17 17 17 17 17 17 17 17 17 17 17 17 17
22 23 23 22 22 21 21 21 20 20 20 19 19 19 18 18 18 18 18 18 18 18 18 17 17 17 17 17 17 17 17 17 17 17 17 17 17 17 17 17 17 17 17
22 22 22 22 21 21 21 21 20 20 19 19 19 18 18 18 18 18 18 18 18 18 17 17 17 17 17 17 17 17 17 17 17 17 17 17 17 17 17 17 17 17 16
22 22 22 21 21 21 21 20 20 20 19 19 19 18 18 18 18 18 18 18 17 17 17 17 17 17 17 17 17 17 17 17 17 17 17 17 17 16 16 16 16 16 16
21 21 21 21 21 21 20 20 20 19 19 19 18 18 18 18 17 18 18 18 17 17 17 17 17 17 17 17 17 17 16 16 16 16 16 16 16 16 16 16 16 16 16
21 21 21 21 20 20 20 20 19 19 19 18 18 18 18 18 17 17 18 17 17 17 17 17 17 17 17 16 16 16 16 16 16 16 16 16 16 16 16 16 16 16 16
20 20 20 20 20 20 20 19 19 19 18 18 18 18 18 18 17 17 17 17 17 17 17 17 16 16 16 16 16 16 16 16 16 16 16 16 16 16 16 16 16 15 15
20 20 20 20 20 20 19 19 19 19 18 18 18 18 17 17 17 17 17 17 17 16 16 16 16 16 16 16 16 16 15 15 15 15 15 15 15 15 15 15 15 15 15
20 20 20 20 20 19 19 19 18 18 18 18 18 17 17 17 17 17 17 17 16 16 16 16 16 16 16 16 16 16 15 15 15 15 15 15 15 15 15 15 15 14 14
19 20 20 20 19 19 19 19 18 18 18 17 17 17 17 17 17 17 16 16 16 16 16 16 16 16 15 15 15 15 15 15 15 15 15 15 14 14 14 14 14 14 14
19 20 20 20 19 19 19 18 18 18 17 17 17 17 17 16 16 16 16 16 16 16 15 15 15 15 15 15 15 15 15 14 14 14 14 14 14 14 14 14 14 13 13
19 19 19 19 19 19 18 18 18 17 17 17 17 17 16 16 16 16 16 15 15 15 15 15 15 15 14 14 14 14 14 14 13 13 13 13 13 13 13 13 13 13 12
19 19 19 19 18 18 18 18 17 17 17 17 17 16 16 16 16 16 15 15 15 15 15 14 14 14 14 14 14 14 13 13 13 13 13 13 13 12 12 12 12 12 12
18 18 18 18 18 18 17 17 17 17 17 16 16 16 16 15 15 15 15 15 15 14 14 14 14 13 13 13 13 13 13 13 13 12 12 12 12 12 12 12 12 11 11
18 18 18 17 17 17 17 17 16 16 16 16 16 15 15 15 15 15 15 14 14 14 13 13 13 13 12 12 12 12 12 12 12 12 11 11 11 11 11 11 11 10 10
17 17 17 17 16 16 16 16 16 16 16 15 15 15 15 15 14 14 14 14 13 13 13 13 12 12 12 12 12 12 12 12 12 11 10 10 10 10 10 10 10 10 10
16 16 16 16 16 16 16 16 15 15 15 15 15 14 14 14 14 14 13 13 13 13 12 12 12 11 11 11 11 11 11 11 11 10 10 10 10 10 9 9 9 9 9
16 16 16 16 15 15 15 15 15 15 15 14 14 14 14 14 13 13 13 13 12 12 12 12 11 11 11 10 10 10 10 10 10 10 9 9 9 9 9 8 8 8 8
15 16 15 15 15 15 15 14 14 14 14 14 13 13 13 13 13 12 12 12 12 11 11 11 11 11 10 10 10 10 10 9 9 9 9 9 8 8 8 8 8 7 7
15 15 15 15 14 14 14 14 14 14 14 13 13 12 12 12 12 12 11 11 11 11 11 11 10 10 10 9 9 9 9 9 9 9 8 8 8 7 7 7 7 7 6
Wind_Speed
9 8 9 10 10 10 10 11 11 10 8 6 6 6 6 6 5 7 11 12 12 12 11 7 6 6 6 6 6 4 3 2 2 1 1 2 3 4 5 6 7 9 11
7 8 8 9 11 11 11 11 12 11 10 8 6 4 4 4 5 5 8 12 12 12 11 9 7 7 6 6 6 5 3 2 3 3 1 2 3 3 4 5 6 8 8
11 10 10 11 10 11 12 11 11 10 9 8 5 3 2 1 2 4 5 8 12 12 11 10 8 7 7 7 7 7 6 4 3 3 3 3 4 2 2 3 5 5 6
9 9 9 9 10 11 10 9 9 9 8 8 7 7 6 5 6 5 5 6 10 11 11 10 9 8 7 7 8 7 5 5 4 3 3 2 3 2 2 2 2 4 6
9 8 9 9 8 8 8 8 8 8 8 8 9 9 7 6 4 4 6 6 6 8 9 9 9 8 7 8 7 7 7 6 5 5 3 3 2 2 2 3 3 2 4
6 6 5 5 5 6 7 7 7 7 7 8 9 9 9 7 6 6 6 6 5 5 7 8 8 8 7 8 8 7 8 7 6 5 5 4 3 4 4 5 4 3 3
6 6 6 6 5 6 7 7 7 7 7 8 8 8 8 8 9 7 7 6 4 5 7 7 7 7 7 8 8 8 8 8 7 7 6 6 5 3 4 4 3 3 3
5 5 6 7 7 6 6 6 7 6 6 6 6 5 5 5 5 6 6 6 5 5 5 7 7 7 8 8 7 7 7 6 8 8 7 5 5 5 4 4 4 3 3
4 5 5 5 6 6 6 6 6 5 5 5 5 4 4 4 4 4 4 4 4 4 6 6 7 7 7 7 7 6 7 6 7 7 7 6 5 5 5 4 4 4 4
4 4 5 5 5 5 5 5 6 5 4 4 4 4 3 3 3 2 3 3 4 4 4 6 6 6 6 6 6 5 6 7 6 6 6 6 5 4 4 4 4 4 5
5 5 5 5 5 5 5 5 4 4 3 3 3 3 2 2 2 2 2 3 2 3 4 5 5 5 5 5 5 6 6 7 6 5 6 6 5 4 4 4 4 4 4
4 5 5 5 5 5 4 4 4 3 3 3 3 3 2 2 2 1 1 1 2 2 2 3 3 4 4 4 5 6 5 6 6 5 5 6 5 5 4 3 4 3 4
5 5 5 5 4 4 4 4 3 3 3 4 3 3 2 2 1 1 0 1 1 1 1 1 2 2 3 3 4 5 4 5 5 4 5 5 5 5 4 4 3 3 3
5 5 5 4 4 3 3 4 3 3 4 4 4 3 2 2 2 1 1 1 1 1 1 1 1 1 1 2 2 3 3 3 2 2 2 3 4 4 4 3 3 2 2
5 5 5 4 4 4 3 3 3 3 4 4 4 2 2 3 3 3 3 3 3 3 3 3 3 3 2 2 3 3 4 3 3 2 2 2 2 3 3 2 2 3 2
5 5 5 5 4 4 4 3 3 3 4 4 3 3 3 4 4 4 4 4 4 4 5 5 4 4 3 5 6 5 4 4 3 2 2 2 3 4 5 5 5 4 3
6 6 5 5 4 4 4 4 3 4 5 4 4 4 5 5 4 5 5 5 5 5 6 5 5 5 6 7 8 8 6 5 4 3 3 3 4 4 4 6 7 7 7
6 5 4 3 3 4 4 5 5 5 5 5 5 5 5 5 5 6 6 5 5 6 6 6 6 7 8 10 10 10 8 7 6 5 5 5 5 5 5 7 7 7 7
6 5 4 4 4 4 5 6 5 5 6 5 5 5 5 6 6 6 6 5 6 7 7 7 8 8 8 10 10 9 8 8 9 8 8 6 6 7 8 8 8 8 7
6 6 5 6 6 4 5 7 6 6 5 4 5 5 6 6 6 6 6 6 7 7 8 9 9 9 8 10 10 9 7 8 8 8 9 12 9 9 9 8 8 8 6
8 7 7 6 5 5 6 8 7 6 5 6 7 7 7 6 6 7 7 8 8 9 9 10 9 9 9 11 12 10 7 7 8 8 8 9 14 14 13 11 8 8 7
8 8 8 7 6 6 7 8 6 5 6 8 8 8 8 7 7 8 8 8 8 9 9 9 9 8 8 10 12 14 12 9 9 8 7 9 14 15 14 11 11 11 9
8 7 9 9 7 6 6 8 6 6 8 9 9 9 9 9 8 8 8 8 7 7 7 7 7 7 7 9 13 14 14 13 10 9 12 13 14 13 12 14 13 9 7
8 7 9 9 7 6 6 6 6 7 9 10 9 8 9 10 9 8 7 7 6 6 6 7 7 6 6 6 6 7 9 11 10 9 11 14 15 12 11 10 9 8 7
7 7 8 8 7 6 6 6 6 8 9 10 9 9 9 9 10 10 8 7 6 4 6 5 5 6 6 5 7 7 6 6 7 7 7 7 7 8 8 7 7 7 6
7 8 8 8 7 7 7 5 5 7 10 9 8 7 7 8 9 10 10 16 12 15 14 11 9 7 9 10 13 14 13 11 10 8 7 7 7 6 6 6 6 6 6
Wind_Direction
203 187 185 184 183 187 188 190 192 190 179 178 186 192 207 209 205 210 213 207 204 201 198 204 200 197 200 200 193 184 192 205 162 132 316 304 262 245 237 233 230 231 231
193 190 182 187 188 191 192 191 194 191 188 192 188 188 189 198 207 207 208 209 204 200 202 200 198 196 197 197 193 183 179 195 171 156 139 311 315 277 247 232 230 234 231
200 197 193 196 193 196 196 196 194 191 191 185 170 158 142 143 190 204 211 212 207 205 205 202 199 196 195 202 201 194 186 193 194 179 161 174 236 289 294 247 237 233 228
203 199 197 199 198 198 192 191 187 186 187 179 180 182 191 203 209 206 209 211 209 207 206 204 200 200 201 205 206 200 195 183 196 201 206 196 175 190 295 300 257 243 237
200 201 202 199 196 188 185 187 181 186 186 187 190 192 203 210 207 205 205 213 211 208 208 207 203 203 205 207 205 195 197 196 197 192 185 195 196 194 203 269 291 276 248
196 194 190 171 179 182 178 177 180 192 187 192 198 201 203 205 204 210 210 214 212 210 210 210 208 206 205 207 207 204 204 205 205 202 192 183 185 197 199 227 251 268 273
186 178 168 171 178 179 177 176 181 195 194 197 205 210 209 207 211 212 211 208 209 212 215 214 209 209 211 211 206 205 209 206 207 209 211 208 209 189 190 208 233 250 273
181 172 171 170 171 179 176 173 181 192 192 198 210 210 205 207 214 208 204 207 211 216 214 213 213 212 213 215 207 208 211 208 212 217 211 213 219 206 198 197 198 234 266
167 161 157 156 161 166 169 171 174 181 187 194 196 197 196 203 215 211 206 206 211 216 212 212 219 218 214 211 203 209 211 205 211 215 212 215 219 212 212 207 198 200 233
141 141 141 148 155 160 153 151 163 175 180 181 189 194 195 200 206 204 212 212 217 221 212 211 216 216 212 209 206 210 210 206 214 211 209 213 217 213 212 210 208 208 214
148 144 141 140 134 127 134 146 153 152 159 176 183 178 185 191 189 204 217 218 218 211 213 210 208 210 212 210 206 212 206 207 211 207 206 215 210 208 212 206 203 207 203
141 135 128 122 122 126 133 141 147 154 163 162 157 162 165 158 169 202 217 201 206 213 210 202 203 209 213 208 204 210 207 205 208 205 203 215 209 206 206 202 208 210 206
127 118 116 121 128 132 134 132 134 140 136 130 135 137 136 140 156 169 151 135 158 185 182 170 195 209 206 202 205 201 198 200 203 201 203 211 199 204 202 198 205 209 202
130 124 122 123 127 132 128 122 123 125 126 124 127 134 144 150 142 126 102 89 85 88 89 98 106 132 149 170 178 166 162 160 154 154 175 192 197 204 200 201 201 186 169
139 140 140 135 130 124 115 114 114 115 117 116 114 121 123 114 104 94 82 77 76 76 73 71 64 64 73 100 128 132 131 129 120 109 110 121 127 134 149 162 168 161 156
149 143 138 134 136 135 128 120 116 118 114 115 118 110 103 100 98 91 82 76 72 68 67 66 68 66 66 81 95 109 109 110 114 110 96 83 78 91 95 98 106 118 133
153 147 148 147 151 144 130 120 116 116 114 111 110 104 100 94 90 89 79 71 67 71 72 69 70 67 60 67 78 86 92 88 84 83 79 77 72 81 88 85 82 78 75
148 141 138 135 126 119 115 111 112 117 114 108 105 104 103 98 92 89 83 75 68 68 69 64 71 71 62 64 73 81 82 79 69 65 74 84 72 71 85 88 81 72 59
135 133 128 124 116 116 116 111 108 106 105 104 102 105 107 105 101 98 95 90 87 77 71 67 67 69 58 53 66 81 83 77 65 57 58 70 77 73 89 95 90 77 62
114 112 110 106 104 103 114 112 107 103 102 104 101 101 103 105 105 105 100 90 88 85 81 71 64 66 59 50 61 76 87 82 73 64 56 56 66 72 82 91 92 85 71
109 106 104 98 95 102 109 105 99 95 94 96 96 96 96 96 99 98 93 94 92 88 83 79 66 59 56 55 59 68 83 90 84 73 63 57 64 69 68 72 77 84 85
111 109 106 96 86 94 105 102 98 98 96 95 92 88 87 90 93 94 92 92 96 92 87 82 72 57 52 55 61 65 71 82 85 78 71 66 66 67 66 69 71 74 76
114 109 108 100 88 85 101 109 105 104 102 96 92 87 85 82 85 91 96 93 91 95 93 88 80 65 55 55 60 66 71 75 83 82 79 72 67 67 65 60 60 61 66
116 114 112 108 100 91 92 102 107 106 107 104 98 92 91 85 77 74 77 87 88 96 97 95 91 82 67 58 60 69 75 76 81 83 74 68 64 64 60 55 53 55 59
117 114 113 112 108 102 96 97 107 110 108 105 101 95 90 94 85 73 61 70 59 85 106 103 103 98 83 58 73 87 84 86 93 89 72 64 61 59 56 54 52 50 50
111 108 104 104 102 100 96 92 100 115 115 109 105 102 101 100 100 96 79 59 67 69 72 81 93 80 89 91 83 81 81 83 89 82 76 69 68 67 62 59 53 47 45
Height
1512 1516 1519 1521 1524 1527 1529 1532 1534 1537 1539 1542 1544 1545 1547 1549 1551 1553 1556 1558 1560 1561 1563 1564 1566 1567 1569 1571 1572 1573 1574 1576 1577 1578 1578 1578 1578 1578 1578 1579 1580 1580 1581
1511 1514 1517 1519 1521 1524 1526 1529 1532 1534 1537 1539 1541 1543 1545 1547 1549 1551 1553 1555 1557 1558 1559 1561 1563 1565 1567 1569 1570 1571 1572 1573 1575 1576 1576 1576 1577 1576 1576 1576 1577 1578 1578
1507 1511 1513 1515 1518 1521 1523 1526 1529 1532 1534 1537 1539 1541 1543 1544 1546 1548 1549 1551 1553 1555 1556 1558 1560 1562 1564 1566 1567 1569 1570 1571 1572 1573 1575 1575 1574 1574 1574 1574 1574 1575 1576
1504 1507 1510 1512 1514 1517 1521 1524 1526 1529 1531 1534 1536 1537 1538 1540 1541 1544 1546 1548 1550 1552 1553 1555 1557 1559 1561 1562 1564 1566 1567 1568 1569 1570 1571 1573 1573 1573 1572 1572 1572 1572 1573
1500 1503 1506 1509 1512 1515 1518 1521 1524 1526 1528 1530 1532 1533 1535 1536 1538 1540 1542 1544 1546 1548 1549 1551 1553 1555 1557 1559 1561 1562 1564 1565 1566 1567 1568 1569 1570 1570 1571 1570 1570 1570 1570
1498 1500 1504 1507 1511 1513 1515 1518 1520 1523 1525 1527 1528 1529 1531 1532 1533 1535 1537 1539 1541 1543 1545 1547 1549 1551 1553 1555 1556 1558 1559 1560 1562 1563 1564 1565 1566 1567 1567 1567 1567 1567 1568
1495 1497 1500 1504 1507 1510 1512 1514 1517 1519 1521 1523 1525 1526 1528 1529 1530 1531 1533 1535 1537 1539 1541 1543 1544 1546 1548 1550 1552 1553 1555 1556 1557 1559 1560 1561 1562 1563 1564 1564 1564 1564 1564
1493 1495 1498 1502 1504 1507 1510 1513 1515 1517 1519 1520 1522 1524 1525 1526 1527 1528 1530 1531 1533 1535 1537 1538 1540 1541 1544 1545 1547 1548 1550 1551 1553 1554 1555 1556 1557 1559 1560 1561 1561 1561 1560
1492 1494 1497 1501 1504 1506 1508 1511 1513 1515 1517 1518 1520 1521 1522 1523 1524 1525 1526 1528 1529 1531 1532 1534 1535 1537 1539 1540 1542 1543 1545 1546 1548 1549 1551 1552 1553 1554 1555 1556 1557 1558 1557
1492 1494 1497 1500 1503 1505 1507 1510 1511 1513 1515 1516 1517 1519 1519 1520 1521 1522 1523 1525 1526 1527 1528 1530 1531 1533 1534 1536 1537 1538 1540 1541 1543 1545 1546 1547 1548 1549 1550 1551 1552 1553 1553
1492 1494 1496 1499 1502 1504 1507 1508 1510 1512 1513 1514 1516 1517 1518 1518 1519 1520 1521 1522 1523 1524 1525 1526 1527 1529 1530 1531 1532 1534 1535 1536 1538 1539 1540 1542 1543 1544 1545 1546 1547 1548 1549
1492 1494 1497 1499 1501 1504 1506 1508 1509 1511 1512 1513 1515 1515 1516 1517 1518 1519 1519 1520 1521 1522 1522 1523 1524 1525 1526 1527 1528 1529 1530 1532 1533 1535 1536 1537 1539 1540 1541 1542 1543 1544 1545
1492 1494 1497 1499 1501 1504 1506 1507 1509 1510 1511 1512 1513 1515 1515 1516 1517 1517 1518 1519 1519 1520 1520 1521 1521 1522 1523 1523 1524 1525 1527 1528 1529 1531 1532 1533 1535 1536 1537 1538 1539 1540 1541
1491 1494 1497 1499 1502 1504 1506 1507 1508 1510 1511 1511 1512 1513 1514 1515 1516 1517 1518 1518 1518 1519 1519 1519 1519 1520 1520 1521 1522 1522 1523 1525 1526 1528 1529 1530 1532 1533 1534 1535 1536 1536 1537
1491 1493 1496 1499 1501 1504 1505 1506 1508 1509 1509 1510 1511 1512 1513 1514 1515 1516 1517 1517 1518 1518 1518 1518 1518 1519 1519 1519 1520 1520 1521 1523 1524 1525 1526 1527 1528 1529 1531 1532 1532 1533 1533
1491 1493 1496 1499 1501 1503 1504 1506 1507 1508 1509 1509 1511 1512 1513 1514 1515 1516 1517 1517 1517 1517 1517 1518 1518 1519 1519 1519 1519 1520 1520 1521 1522 1523 1524 1525 1526 1527 1528 1529 1529 1530 1530
1491 1493 1496 1498 1501 1502 1504 1505 1507 1508 1509 1510 1511 1512 1514 1514 1516 1516 1517 1517 1517 1517 1517 1518 1518 1519 1519 1520 1520 1520 1520 1521 1522 1522 1523 1524 1525 1526 1526 1527 1527 1527 1527
1491 1494 1496 1499 1501 1502 1504 1505 1506 1508 1509 1510 1512 1513 1514 1515 1516 1517 1517 1518 1518 1518 1518 1518 1518 1519 1520 1520 1520 1520 1521 1521 1522 1522 1523 1524 1524 1525 1525 1526 1526 1526 1526
1491 1493 1496 1499 1500 1502 1504 1505 1506 1508 1509 1510 1512 1513 1514 1515 1516 1517 1518 1518 1519 1519 1520 1520 1520 1520 1521 1521 1521 1521 1521 1522 1522 1523 1524 1524 1524 1525 1525 1526 1526 1526 1526
1491 1493 1496 1498 1500 1502 1503 1505 1506 1508 1509 1511 1512 1514 1515 1516 1517 1518 1519 1519 1520 1520 1521 1521 1521 1522 1523 1523 1524 1524 1524 1523 1524 1524 1524 1525 1525 1526 1526 1526 1526 1525 1526
1490 1493 1495 1497 1499 1502 1504 1505 1506 1508 1510 1512 1513 1514 1516 1517 1518 1519 1519 1520 1521 1522 1522 1523 1524 1524 1525 1525 1526 1526 1526 1526 1526 1526 1526 1526 1527 1527 1527 1527 1527 1527 1527
1490 1493 1495 1498 1500 1502 1504 1505 1507 1509 1510 1512 1513 1515 1516 1518 1519 1519 1520 1522 1523 1524 1524 1525 1526 1527 1528 1528 1528 1528 1528 1529 1529 1529 1529 1529 1529 1529 1529 1529 1529 1529 1529
1491 1493 1495 1498 1500 1503 1505 1506 1507 1509 1511 1512 1514 1516 1517 1518 1520 1521 1522 1524 1525 1525 1526 1527 1528 1529 1530 1531 1531 1531 1531 1532 1531 1531 1532 1532 1532 1531 1531 1531 1531 1531 1531
1491 1494 1496 1498 1500 1503 1505 1507 1508 1510 1511 1513 1515 1517 1518 1520 1521 1523 1524 1526 1527 1528 1529 1530 1531 1532 1533 1533 1534 1534 1534 1534 1534 1534 1535 1535 1534 1534 1534 1533 1533 1532 1532
1491 1494 1497 1498 1501 1503 1505 1508 1509 1511 1512 1514 1516 1518 1520 1521 1523 1525 1527 1528 1529 1531 1532 1533 1534 1534 1535 1536 1537 1537 1537 1537 1537 1537 1537 1537 1537 1536 1536 1535 1535 1534 1533
1492 1494 1497 1500 1502 1504 1506 1508 1510 1512 1514 1515 1517 1520 1522 1523 1525 1527 1528 1530 1532 1533 1534 1535 1536 1537 1538 1538 1539 1539 1540 1540 1540 1540 1539 1539 1538 1538 1538 1537 1536 1535 1534